| time (UTC) | temp F | wind direction | speed MPH | gust MPH | rain 1hr in | rain 24hr in | rain mn in | humidity % | barometer mb |
| 20260906051901 | 69 | 116 | 0.0 | 0.0 | 0.00 | 0.00 | 0.00 | 99 | 1011.8 |
| 20260906051401 | 70 | 113 | 0.0 | 0.0 | 0.00 | 0.00 | 0.00 | 99 | 1011.8 |
| 20260906050856 | 70 | 118 | 0.0 | 0.0 | 0.00 | 0.00 | 0.00 | 99 | 1011.8 |
| 20260906050351 | 70 | 125 | 0.0 | 0.0 | 0.00 | 0.00 | 0.00 | 99 | 1011.7 |
| 20260906045850 | 70 | 113 | 0.0 | 0.0 | 0.00 | 0.00 | 0.00 | 99 | 1011.7 |
| 20260906045349 | 70 | 116 | 0.0 | 0.0 | 0.00 | 0.00 | 0.00 | 99 | 1011.7 |
| 20260906044846 | 70 | 116 | 0.0 | 0.0 | 0.00 | 0.00 | 0.00 | 99 | 1011.9 |
| 20260906044346 | 70 | 112 | 0.0 | 0.0 | 0.00 | 0.00 | 0.00 | 99 | 1011.8 |
| 20260906043842 | 70 | 118 | 0.0 | 0.0 | 0.00 | 0.00 | 0.00 | 99 | 1011.6 |
| 20260906043338 | 70 | 118 | 0.0 | 0.0 | 0.00 | 0.00 | 0.00 | 99 | 1011.9 |
| 20260906042833 | 70 | 118 | 0.0 | 0.0 | 0.00 | 0.00 | 0.00 | 99 | 1012.0 |
| 20260906042331 | 70 | 118 | 0.0 | 0.0 | 0.00 | 0.00 | 0.00 | 99 | 1011.8 |
| 20260906041827 | 70 | 113 | 0.0 | 0.0 | 0.00 | 0.00 | 0.00 | 99 | 1012.0 |
| 20260906041323 | 70 | 113 | 0.0 | 0.0 | 0.00 | 0.00 | 0.00 | 99 | 1012.1 |
| 20260906040823 | 70 | 111 | 0.0 | 0.0 | 0.00 | 0.00 | 0.00 | 99 | 1012.1 |
| 20260906040318 | 70 | 116 | 0.0 | 0.0 | 0.00 | 0.00 | 0.00 | 99 | 1012.0 |
| 20260906035813 | 70 | 116 | 0.0 | 0.0 | 0.00 | 0.35 | 0.35 | 99 | 1012.2 |
| 20260906035308 | 70 | 116 | 0.0 | 0.0 | 0.00 | 0.35 | 0.35 | 99 | 1012.0 |
| 20260906034803 | 70 | 116 | 0.0 | 0.0 | 0.00 | 0.35 | 0.35 | 99 | 1012.2 |
| 20260906034258 | 70 | 109 | 0.0 | 0.0 | 0.00 | 0.35 | 0.35 | 99 | 1012.2 |
| 20260906033754 | 70 | 94 | 1.0 | 1.0 | 0.00 | 0.35 | 0.35 | 99 | 1012.1 |
| 20260906033253 | 70 | 111 | 0.0 | 0.0 | 0.00 | 0.35 | 0.35 | 99 | 1012.0 |
| 20260906032750 | 71 | 117 | 0.0 | 0.0 | 0.00 | 0.35 | 0.35 | 99 | 1012.2 |
| 20260906032250 | 71 | 118 | 0.0 | 0.0 | 0.00 | 0.35 | 0.35 | 99 | 1012.2 |
| 20260906031745 | 71 | 118 | 0.0 | 0.0 | 0.00 | 0.35 | 0.35 | 99 | 1012.4 |
| 20260906031241 | 71 | 118 | 0.0 | 0.0 | 0.00 | 0.35 | 0.35 | 99 | 1012.4 |
| 20260906030740 | 71 | 114 | 0.0 | 0.0 | 0.00 | 0.35 | 0.35 | 99 | 1012.6 |
| 20260906030236 | 71 | 122 | 0.0 | 0.0 | 0.00 | 0.35 | 0.35 | 99 | 1012.3 |
| 20260906025735 | 71 | 119 | 0.0 | 0.0 | 0.00 | 0.35 | 0.35 | 99 | 1012.3 |
| 20260906025229 | 71 | 118 | 0.0 | 0.0 | 0.00 | 0.35 | 0.35 | 99 | 1012.3 |
| 20260906024728 | 71 | 114 | 0.0 | 0.0 | 0.00 | 0.35 | 0.35 | 99 | 1012.1 |
| 20260906024228 | 71 | 113 | 0.0 | 0.0 | 0.00 | 0.35 | 0.35 | 99 | 1012.0 |
| 20260906023724 | 71 | 114 | 0.0 | 0.0 | 0.00 | 0.35 | 0.35 | 99 | 1011.8 |
| 20260906023219 | 71 | 117 | 0.0 | 0.0 | 0.00 | 0.35 | 0.35 | 99 | 1011.7 |
| 20260906022714 | 71 | 117 | 0.0 | 0.0 | 0.00 | 0.35 | 0.35 | 99 | 1011.9 |
| 20260906022209 | 71 | 114 | 0.0 | 0.0 | 0.00 | 0.35 | 0.35 | 99 | 1011.8 |
| 20260906021706 | 71 | 117 | 0.0 | 0.0 | 0.00 | 0.35 | 0.35 | 99 | 1011.9 |
| 20260906021204 | 71 | 117 | 0.0 | 0.0 | 0.00 | 0.35 | 0.35 | 99 | 1011.9 |
| 20260906020659 | 71 | 117 | 0.0 | 0.0 | 0.00 | 0.35 | 0.35 | 99 | 1011.9 |
| 20260906020154 | 72 | 117 | 0.0 | 0.0 | 0.00 | 0.35 | 0.35 | 99 | 1011.7 |
| 20260906015648 | 72 | 117 | 0.0 | 0.0 | 0.00 | 0.35 | 0.35 | 99 | 1011.9 |
| 20260906015147 | 72 | 117 | 0.0 | 0.0 | 0.00 | 0.35 | 0.35 | 99 | 1011.8 |
| 20260906014647 | 72 | 117 | 0.0 | 0.0 | 0.00 | 0.35 | 0.35 | 99 | 1011.6 |
| 20260906014143 | 72 | 117 | 0.0 | 0.0 | 0.00 | 0.35 | 0.35 | 99 | 1011.7 |
| 20260906013638 | 72 | 114 | 0.0 | 0.0 | 0.00 | 0.35 | 0.35 | 99 | 1011.7 |
| 20260906013134 | 72 | 113 | 0.0 | 0.0 | 0.00 | 0.35 | 0.35 | 99 | 1011.7 |
| 20260906012633 | 72 | 117 | 0.0 | 0.0 | 0.00 | 0.35 | 0.35 | 99 | 1011.6 |
| 20260906012128 | 72 | 116 | 0.0 | 0.0 | 0.00 | 0.35 | 0.35 | 99 | 1011.7 |
| 20260906011624 | 72 | 116 | 0.0 | 0.0 | 0.00 | 0.35 | 0.35 | 99 | 1011.5 |
| 20260906011119 | 72 | 116 | 0.0 | 0.0 | 0.00 | 0.35 | 0.35 | 99 | 1011.6 |
| 20260906010614 | 72 | 116 | 0.0 | 0.0 | 0.00 | 0.35 | 0.35 | 99 | 1011.7 |
| 20260906010110 | 72 | 115 | 0.0 | 0.0 | 0.00 | 0.35 | 0.35 | 99 | 1011.6 |
| 20260906005610 | 72 | 115 | 0.0 | 0.0 | 0.00 | 0.35 | 0.35 | 99 | 1011.5 |
| 20260906005109 | 72 | 117 | 0.0 | 0.0 | 0.00 | 0.35 | 0.35 | 99 | 1011.9 |
| 20260906004608 | 72 | 117 | 0.0 | 0.0 | 0.00 | 0.35 | 0.35 | 99 | 1011.7 |
| 20260906004103 | 72 | 117 | 0.0 | 0.0 | 0.00 | 0.35 | 0.35 | 99 | 1011.6 |
| 20260906003558 | 72 | 117 | 0.0 | 0.0 | 0.00 | 0.35 | 0.35 | 99 | 1011.4 |
| 20260906003054 | 72 | 119 | 0.0 | 0.0 | 0.00 | 0.35 | 0.35 | 99 | 1011.5 |
| 20260906002549 | 73 | 116 | 0.0 | 0.0 | 0.00 | 0.35 | 0.35 | 99 | 1011.4 |
| 20260906002044 | 72 | 116 | 0.0 | 0.0 | 0.00 | 0.35 | 0.35 | 99 | 1011.3 |
| 20260906001539 | 72 | 122 | 0.0 | 0.0 | 0.00 | 0.35 | 0.35 | 99 | 1011.6 |
| 20260906001033 | 72 | 115 | 0.0 | 0.0 | 0.00 | 0.35 | 0.35 | 99 | 1011.4 |
| 20260906000529 | 73 | 119 | 0.0 | 0.0 | 0.00 | 0.35 | 0.35 | 99 | 1011.5 |
| 20260906000024 | 73 | 118 | 0.0 | 0.0 | 0.00 | 0.35 | 0.35 | 99 | 1011.6 |
| 20260905235517 | 73 | 118 | 0.0 | 0.0 | 0.00 | 0.35 | 0.35 | 99 | 1011.3 |
| 20260905235013 | 73 | 110 | 0.0 | 0.0 | 0.00 | 0.35 | 0.35 | 99 | 1011.4 |
| 20260905234509 | 73 | 122 | 0.0 | 0.0 | 0.00 | 0.35 | 0.35 | 99 | 1011.3 |
| 20260905234009 | 73 | 118 | 0.0 | 0.0 | 0.00 | 0.35 | 0.35 | 99 | 1011.0 |
| 20260905233504 | 73 | 117 | 0.0 | 0.0 | 0.00 | 0.35 | 0.35 | 99 | 1011.1 |
| 20260905233003 | 73 | 118 | 0.0 | 0.0 | 0.00 | 0.35 | 0.35 | 99 | 1010.8 |
| 20260905232459 | 73 | 124 | 0.0 | 0.0 | 0.00 | 0.35 | 0.35 | 99 | 1011.0 |
| 20260905231954 | 74 | 121 | 0.0 | 0.0 | 0.00 | 0.35 | 0.35 | 99 | 1010.8 |
| 20260905231450 | 74 | 120 | 0.0 | 0.0 | 0.00 | 0.35 | 0.35 | 99 | 1010.4 |
| 20260905230946 | 73 | 118 | 0.0 | 0.0 | 0.00 | 0.35 | 0.35 | 99 | 1010.3 |
| 20260905230445 | 74 | 116 | 0.0 | 0.0 | 0.00 | 0.35 | 0.35 | 99 | 1010.8 |
| 20260905225943 | 73 | 123 | 0.0 | 0.0 | 0.00 | 0.35 | 0.35 | 99 | 1010.4 |
| 20260905225438 | 73 | 118 | 0.0 | 0.0 | 0.00 | 0.35 | 0.35 | 99 | 1010.4 |
| 20260905224933 | 74 | 116 | 0.0 | 0.0 | 0.00 | 0.35 | 0.35 | 99 | 1010.2 |
| 20260905224428 | 73 | 113 | 0.0 | 0.0 | 0.00 | 0.35 | 0.35 | 99 | 1010.1 |
| 20260905223922 | 73 | 119 | 0.0 | 0.0 | 0.00 | 0.35 | 0.35 | 99 | 1010.4 |
| 20260905223421 | 73 | 119 | 0.0 | 0.0 | 0.00 | 0.35 | 0.35 | 99 | 1010.4 |
| 20260905222921 | 73 | 120 | 0.0 | 0.0 | 0.00 | 0.35 | 0.35 | 99 | 1010.3 |
| 20260905222420 | 73 | 120 | 0.0 | 0.0 | 0.00 | 0.35 | 0.35 | 99 | 1010.1 |
| 20260905221916 | 74 | 117 | 0.0 | 1.0 | 0.00 | 0.35 | 0.35 | 99 | 1010.2 |
| 20260905221413 | 74 | 116 | 0.0 | 0.0 | 0.00 | 0.35 | 0.35 | 99 | 1010.2 |
| 20260905220909 | 75 | 117 | 0.0 | 0.0 | 0.00 | 0.35 | 0.35 | 99 | 1010.4 |
| 20260905220404 | 74 | 80 | 1.0 | 2.0 | 0.00 | 0.35 | 0.35 | 99 | 1010.1 |
| 20260905215903 | 74 | 113 | 0.0 | 0.0 | 0.00 | 0.35 | 0.35 | 99 | 1010.3 |
| 20260905215359 | 75 | 115 | 0.0 | 0.0 | 0.00 | 0.35 | 0.35 | 99 | 1010.2 |
| 20260905214855 | 74 | 246 | 1.0 | 2.0 | 0.00 | 0.35 | 0.35 | 99 | 1010.1 |
| 20260905214350 | 74 | 110 | 1.0 | 3.0 | 0.00 | 0.35 | 0.35 | 99 | 1010.4 |
| 20260905213845 | 74 | 93 | 0.0 | 2.0 | 0.00 | 0.35 | 0.35 | 99 | 1010.3 |
| 20260905213342 | 73 | 332 | 2.0 | 3.0 | 0.00 | 0.35 | 0.35 | 99 | 1010.1 |
| 20260905212842 | 74 | 117 | 0.0 | 2.0 | 0.00 | 0.35 | 0.35 | 99 | 1010.2 |
| 20260905212336 | 74 | 115 | 2.0 | 2.0 | 0.00 | 0.35 | 0.35 | 99 | 1010.3 |
| 20260905211836 | 75 | 125 | 1.0 | 2.0 | 0.00 | 0.35 | 0.35 | 99 | 1010.4 |
| 20260905211331 | 73 | 118 | 0.0 | 0.0 | 0.00 | 0.35 | 0.35 | 99 | 1010.6 |
| 20260905210827 | 74 | 107 | 0.0 | 0.0 | 0.00 | 0.35 | 0.35 | 99 | 1010.8 |
| 20260905210322 | 73 | 113 | 0.0 | 0.0 | 0.00 | 0.35 | 0.35 | 99 | 1010.9 |
| 20260905205821 | 72 | 119 | 1.0 | 1.0 | 0.00 | 0.35 | 0.35 | 99 | 1011.1 |
| 20260905205316 | 71 | 118 | 0.0 | 0.0 | 0.07 | 0.35 | 0.35 | 99 | 1011.2 |
| 20260905204815 | 71 | 117 | 0.0 | 0.0 | 0.00 | 0.34 | 0.34 | 99 | 1011.7 |
| 20260905204311 | 71 | 134 | 0.0 | 0.0 | 0.05 | 0.34 | 0.34 | 99 | 1012.0 |
| 20260905203810 | 71 | 122 | 1.0 | 1.0 | 0.07 | 0.33 | 0.33 | 99 | 1011.8 |
| 20260905203306 | 71 | 115 | 0.0 | 0.0 | 0.07 | 0.33 | 0.33 | 99 | 1011.9 |
| 20260905202801 | 71 | 121 | 0.0 | 1.0 | 0.00 | 0.32 | 0.32 | 99 | 1011.8 |
| 20260905202255 | 71 | 35 | 1.0 | 3.0 | 0.00 | 0.32 | 0.32 | 99 | 1011.9 |
| 20260905201751 | 71 | 119 | 0.0 | 0.0 | 0.00 | 0.32 | 0.32 | 99 | 1011.6 |
| 20260905201247 | 71 | 106 | 0.0 | 0.0 | 0.00 | 0.32 | 0.32 | 99 | 1011.4 |
| 20260905200741 | 71 | 125 | 0.0 | 0.0 | 0.00 | 0.32 | 0.32 | 99 | 1011.3 |
| 20260905200237 | 70 | 133 | 0.0 | 0.0 | 0.00 | 0.32 | 0.32 | 99 | 1010.9 |
| 20260905195735 | 71 | 128 | 0.0 | 0.0 | 0.05 | 0.32 | 0.32 | 98 | 1011.2 |
| 20260905195230 | 71 | 123 | 0.0 | 0.0 | 0.47 | 0.32 | 0.32 | 97 | 1011.7 |
| 20260905194726 | 71 | 122 | 1.0 | 1.0 | 1.75 | 0.31 | 0.31 | 95 | 1012.2 |
| 20260905194225 | 74 | 123 | 1.0 | 1.0 | 1.09 | 0.18 | 0.18 | 88 | 1012.5 |
| 20260905193719 | 86 | 22 | 11.0 | 30.0 | 0.00 | 0.00 | 0.00 | 73 | 1012.4 |
| 20260905193214 | 88 | 1 | 10.0 | 15.0 | 0.00 | 0.00 | 0.00 | 56 | 1011.6 |
| 20260905192710 | 90 | 137 | 2.0 | 5.0 | 0.00 | 0.00 | 0.00 | 68 | 1011.0 |
| 20260905192206 | 92 | 123 | 0.0 | 0.0 | 0.00 | 0.00 | 0.00 | 63 | 1010.7 |
| 20260905191706 | 93 | 121 | 0.0 | 1.0 | 0.00 | 0.00 | 0.00 | 63 | 1010.6 |
| 20260905191204 | 94 | 113 | 0.0 | 1.0 | 0.00 | 0.00 | 0.00 | 58 | 1010.5 |
| 20260905190703 | 95 | 117 | 0.0 | 1.0 | 0.00 | 0.00 | 0.00 | 57 | 1010.3 |
| 20260905190202 | 96 | 129 | 0.0 | 1.0 | 0.00 | 0.00 | 0.00 | 53 | 1010.2 |
| 20260905185701 | 96 | 116 | 0.0 | 1.0 | 0.00 | 0.00 | 0.00 | 54 | 1010.5 |
| 20260905185155 | 99 | 138 | 1.0 | 2.0 | 0.00 | 0.00 | 0.00 | 50 | 1010.2 |
| 20260905184655 | 97 | 51 | 2.0 | 3.0 | 0.00 | 0.00 | 0.00 | 50 | 1010.4 |
| 20260905184153 | 98 | 73 | 0.0 | 2.0 | 0.00 | 0.00 | 0.00 | 49 | 1010.4 |
| 20260905183648 | 99 | 322 | 3.0 | 3.0 | 0.00 | 0.00 | 0.00 | 50 | 1010.6 |
| 20260905183143 | 97 | 124 | 0.0 | 1.0 | 0.00 | 0.00 | 0.00 | 52 | 1010.6 |
| 20260905182642 | 96 | 148 | 1.0 | 1.0 | 0.00 | 0.00 | 0.00 | 53 | 1010.6 |
| 20260905182143 | 97 | 123 | 1.0 | 1.0 | 0.00 | 0.00 | 0.00 | 52 | 1011.0 |
| 20260905181638 | 97 | 123 | 1.0 | 1.0 | 0.00 | 0.00 | 0.00 | 52 | 1010.8 |
| 20260905181137 | 96 | 124 | 1.0 | 2.0 | 0.00 | 0.00 | 0.00 | 55 | 1011.0 |
| 20260905180632 | 96 | 96 | 0.0 | 1.0 | 0.00 | 0.00 | 0.00 | 53 | 1011.2 |
| 20260905180127 | 96 | 116 | 0.0 | 1.0 | 0.00 | 0.00 | 0.00 | 55 | 1011.3 |
| 20260905175626 | 96 | 129 | 2.0 | 3.0 | 0.00 | 0.00 | 0.00 | 54 | 1011.3 |
| 20260905175121 | 95 | 155 | 0.0 | 1.0 | 0.00 | 0.00 | 0.00 | 54 | 1011.3 |
| 20260905174611 | 94 | 125 | 1.0 | 1.0 | 0.00 | 0.00 | 0.00 | 58 | 1011.6 |
| 20260905174106 | 95 | 28 | 2.0 | 5.0 | 0.00 | 0.00 | 0.00 | 57 | 1011.7 |
| 20260905173603 | 96 | 139 | 1.0 | 2.0 | 0.00 | 0.00 | 0.00 | 58 | 1011.8 |
| 20260905173058 | 96 | 131 | 1.0 | 1.0 | 0.00 | 0.00 | 0.00 | 57 | 1011.7 |
| 20260905172556 | 95 | 120 | 0.0 | 0.0 | 0.00 | 0.00 | 0.00 | 58 | 1011.9 |
| 20260905172052 | 96 | 129 | 0.0 | 0.0 | 0.00 | 0.00 | 0.00 | 57 | 1012.0 |
| 20260905171548 | 96 | 115 | 0.0 | 1.0 | 0.00 | 0.00 | 0.00 | 57 | 1011.8 |
| 20260905171044 | 95 | 127 | 0.0 | 1.0 | 0.00 | 0.00 | 0.00 | 57 | 1012.3 |
| 20260905170541 | 95 | 120 | 0.0 | 1.0 | 0.00 | 0.00 | 0.00 | 62 | 1012.5 |
| 20260905170036 | 95 | 126 | 0.0 | 1.0 | 0.00 | 0.00 | 0.00 | 61 | 1012.4 |
| 20260905165530 | 93 | 113 | 0.0 | 1.0 | 0.00 | 0.00 | 0.00 | 61 | 1012.7 |
| 20260905165026 | 94 | 108 | 0.0 | 2.0 | 0.00 | 0.00 | 0.00 | 60 | 1012.6 |
| 20260905164520 | 94 | 139 | 1.0 | 1.0 | 0.00 | 0.00 | 0.00 | 62 | 1012.7 |
| 20260905164015 | 94 | 123 | 0.0 | 1.0 | 0.00 | 0.00 | 0.00 | 64 | 1012.6 |
| 20260905163511 | 92 | 122 | 0.0 | 3.0 | 0.00 | 0.00 | 0.00 | 66 | 1012.9 |
| 20260905163007 | 93 | 117 | 1.0 | 1.0 | 0.00 | 0.00 | 0.00 | 64 | 1012.9 |
| 20260905162502 | 91 | 124 | 0.0 | 2.0 | 0.00 | 0.00 | 0.00 | 66 | 1013.0 |
| 20260905161957 | 91 | 121 | 0.0 | 1.0 | 0.00 | 0.00 | 0.00 | 68 | 1013.2 |
| 20260905161456 | 91 | 118 | 1.0 | 2.0 | 0.00 | 0.00 | 0.00 | 68 | 1013.2 |
| 20260905160954 | 92 | 185 | 3.0 | 3.0 | 0.00 | 0.00 | 0.00 | 67 | 1013.3 |
| 20260905160448 | 92 | 114 | 0.0 | 1.0 | 0.00 | 0.00 | 0.00 | 65 | 1013.0 |
| 20260905155948 | 90 | 127 | 0.0 | 1.0 | 0.00 | 0.00 | 0.00 | 70 | 1013.3 |
| 20260905155443 | 89 | 126 | 1.0 | 1.0 | 0.00 | 0.00 | 0.00 | 72 | 1013.4 |
| 20260905154941 | 89 | 135 | 1.0 | 3.0 | 0.00 | 0.00 | 0.00 | 71 | 1012.9 |
| 20260905154436 | 89 | 87 | 2.0 | 5.0 | 0.00 | 0.00 | 0.00 | 72 | 1013.3 |
| 20260905153932 | 89 | 129 | 2.0 | 2.0 | 0.00 | 0.00 | 0.00 | 74 | 1013.4 |
| 20260905153428 | 88 | 114 | 0.0 | 0.0 | 0.00 | 0.00 | 0.00 | 75 | 1013.2 |
| 20260905152928 | 87 | 130 | 1.0 | 1.0 | 0.00 | 0.00 | 0.00 | 76 | 1013.4 |
| 20260905152428 | 87 | 122 | 1.0 | 3.0 | 0.00 | 0.00 | 0.00 | 74 | 1013.5 |
| 20260905151923 | 87 | 111 | 2.0 | 2.0 | 0.00 | 0.00 | 0.00 | 73 | 1013.2 |
| 20260905151419 | 87 | 355 | 3.0 | 3.0 | 0.00 | 0.00 | 0.00 | 74 | 1013.5 |
| 20260905150918 | 86 | 115 | 0.0 | 0.0 | 0.00 | 0.00 | 0.00 | 74 | 1013.4 |
| 20260905150413 | 87 | 16 | 2.0 | 2.0 | 0.00 | 0.00 | 0.00 | 77 | 1013.7 |
| 20260905145909 | 86 | 4 | 3.0 | 3.0 | 0.00 | 0.00 | 0.00 | 78 | 1013.3 |
| 20260905145404 | 85 | 115 | 0.0 | 1.0 | 0.00 | 0.00 | 0.00 | 78 | 1013.5 |
| 20260905144904 | 85 | 126 | 0.0 | 1.0 | 0.00 | 0.00 | 0.00 | 80 | 1013.4 |
| 20260905144359 | 85 | 121 | 0.0 | 0.0 | 0.00 | 0.00 | 0.00 | 81 | 1013.4 |
| 20260905143858 | 84 | 125 | 0.0 | 2.0 | 0.00 | 0.00 | 0.00 | 81 | 1013.4 |
| 20260905143352 | 84 | 124 | 0.0 | 2.0 | 0.00 | 0.00 | 0.00 | 81 | 1013.7 |
| 20260905142851 | 84 | 125 | 1.0 | 2.0 | 0.00 | 0.00 | 0.00 | 82 | 1013.5 |
| 20260905142350 | 84 | 122 | 0.0 | 2.0 | 0.00 | 0.00 | 0.00 | 82 | 1013.7 |
| 20260905141846 | 84 | 128 | 0.0 | 0.0 | 0.00 | 0.00 | 0.00 | 82 | 1013.5 |
| 20260905141341 | 84 | 117 | 0.0 | 0.0 | 0.00 | 0.00 | 0.00 | 83 | 1013.4 |
| 20260905140838 | 84 | 119 | 0.0 | 0.0 | 0.00 | 0.00 | 0.00 | 83 | 1013.7 |
| 20260905140337 | 83 | 86 | 0.0 | 1.0 | 0.00 | 0.00 | 0.00 | 85 | 1013.4 |
| 20260905135836 | 82 | 117 | 0.0 | 0.0 | 0.00 | 0.00 | 0.00 | 86 | 1013.6 |
| 20260905135332 | 81 | 87 | 2.0 | 2.0 | 0.00 | 0.00 | 0.00 | 86 | 1013.9 |
| 20260905134827 | 80 | 128 | 0.0 | 1.0 | 0.00 | 0.00 | 0.00 | 87 | 1013.8 |
| 20260905134321 | 80 | 111 | 0.0 | 0.0 | 0.00 | 0.00 | 0.00 | 88 | 1013.6 |
| 20260905133821 | 80 | 118 | 1.0 | 1.0 | 0.00 | 0.00 | 0.00 | 88 | 1013.7 |
| 20260905133316 | 80 | 116 | 0.0 | 1.0 | 0.00 | 0.00 | 0.00 | 88 | 1013.9 |
| 20260905132815 | 79 | 112 | 2.0 | 2.0 | 0.00 | 0.00 | 0.00 | 89 | 1013.7 |
| 20260905132311 | 79 | 332 | 3.0 | 5.0 | 0.00 | 0.00 | 0.00 | 89 | 1013.8 |
| 20260905131805 | 79 | 116 | 1.0 | 1.0 | 0.00 | 0.00 | 0.00 | 91 | 1013.9 |
| 20260905131301 | 78 | 121 | 1.0 | 1.0 | 0.00 | 0.00 | 0.00 | 91 | 1014.2 |
| 20260905130755 | 78 | 103 | 1.0 | 1.0 | 0.00 | 0.00 | 0.00 | 92 | 1014.1 |
| 20260905130254 | 77 | 113 | 1.0 | 2.0 | 0.00 | 0.00 | 0.00 | 94 | 1014.1 |
| 20260905125750 | 76 | 119 | 0.0 | 1.0 | 0.00 | 0.00 | 0.00 | 96 | 1013.9 |
| 20260905125244 | 76 | 116 | 1.0 | 2.0 | 0.00 | 0.00 | 0.00 | 97 | 1014.0 |
| 20260905124741 | 75 | 110 | 1.0 | 2.0 | 0.00 | 0.00 | 0.00 | 99 | 1014.1 |
| 20260905124237 | 75 | 129 | 0.0 | 1.0 | 0.00 | 0.00 | 0.00 | 99 | 1014.0 |
| 20260905123732 | 75 | 116 | 0.0 | 0.0 | 0.00 | 0.00 | 0.00 | 99 | 1014.0 |
| 20260905123229 | 74 | 115 | 0.0 | 0.0 | 0.00 | 0.00 | 0.00 | 99 | 1014.3 |
| 20260905122729 | 74 | 113 | 1.0 | 2.0 | 0.00 | 0.00 | 0.00 | 99 | 1013.9 |
| 20260905122228 | 74 | 115 | 0.0 | 0.0 | 0.00 | 0.00 | 0.00 | 99 | 1014.0 |
| 20260905121724 | 74 | 115 | 0.0 | 1.0 | 0.00 | 0.00 | 0.00 | 99 | 1014.1 |
| 20260905121220 | 73 | 104 | 0.0 | 0.0 | 0.00 | 0.00 | 0.00 | 99 | 1013.8 |
| 20260905120719 | 73 | 119 | 0.0 | 0.0 | 0.00 | 0.00 | 0.00 | 99 | 1013.8 |
| 20260905120213 | 73 | 118 | 0.0 | 0.0 | 0.00 | 0.00 | 0.00 | 99 | 1013.6 |
| 20260905115708 | 73 | 116 | 0.0 | 0.0 | 0.00 | 0.00 | 0.00 | 99 | 1013.8 |
| 20260905115203 | 73 | 119 | 0.0 | 0.0 | 0.00 | 0.00 | 0.00 | 99 | 1013.7 |
| 20260905114702 | 72 | 117 | 0.0 | 0.0 | 0.00 | 0.00 | 0.00 | 99 | 1013.7 |
| 20260905114201 | 72 | 117 | 0.0 | 0.0 | 0.00 | 0.00 | 0.00 | 99 | 1013.7 |
| 20260905113655 | 72 | 117 | 0.0 | 0.0 | 0.00 | 0.00 | 0.00 | 99 | 1013.5 |
| 20260905113151 | 72 | 116 | 0.0 | 0.0 | 0.00 | 0.00 | 0.00 | 99 | 1013.5 |
| 20260905112650 | 72 | 116 | 0.0 | 0.0 | 0.00 | 0.00 | 0.00 | 99 | 1013.3 |
| 20260905112146 | 72 | 116 | 0.0 | 0.0 | 0.00 | 0.00 | 0.00 | 99 | 1013.2 |
| 20260905111646 | 72 | 116 | 0.0 | 0.0 | 0.00 | 0.00 | 0.00 | 99 | 1013.3 |
| 20260905111145 | 72 | 116 | 0.0 | 0.0 | 0.00 | 0.00 | 0.00 | 99 | 1013.2 |
| 20260905110644 | 72 | 116 | 0.0 | 0.0 | 0.00 | 0.00 | 0.00 | 99 | 1012.8 |
| 20260905110140 | 72 | 119 | 0.0 | 0.0 | 0.00 | 0.00 | 0.00 | 99 | 1012.8 |
| 20260905105635 | 72 | 117 | 0.0 | 0.0 | 0.00 | 0.00 | 0.00 | 99 | 1012.7 |
| 20260905105134 | 72 | 117 | 0.0 | 0.0 | 0.00 | 0.00 | 0.00 | 99 | 1012.7 |
| 20260905104629 | 72 | 120 | 0.0 | 0.0 | 0.00 | 0.00 | 0.00 | 99 | 1012.7 |
| 20260905104125 | 72 | 118 | 0.0 | 0.0 | 0.00 | 0.00 | 0.00 | 99 | 1012.6 |
| 20260905103620 | 72 | 117 | 0.0 | 0.0 | 0.00 | 0.00 | 0.00 | 99 | 1012.5 |
| 20260905103116 | 72 | 117 | 0.0 | 0.0 | 0.00 | 0.00 | 0.00 | 99 | 1012.5 |
| 20260905102611 | 72 | 116 | 0.0 | 0.0 | 0.00 | 0.00 | 0.00 | 99 | 1012.7 |
| 20260905102108 | 72 | 116 | 0.0 | 0.0 | 0.00 | 0.00 | 0.00 | 99 | 1012.4 |
| 20260905101606 | 72 | 120 | 0.0 | 0.0 | 0.00 | 0.00 | 0.00 | 99 | 1012.6 |
| 20260905101104 | 72 | 120 | 0.0 | 0.0 | 0.00 | 0.00 | 0.00 | 99 | 1012.2 |
| 20260905100601 | 72 | 120 | 0.0 | 0.0 | 0.00 | 0.00 | 0.00 | 99 | 1012.4 |
| 20260905100055 | 72 | 120 | 0.0 | 0.0 | 0.00 | 0.00 | 0.00 | 99 | 1012.3 |
| 20260905095549 | 72 | 120 | 0.0 | 0.0 | 0.00 | 0.00 | 0.00 | 99 | 1012.2 |
| 20260905095045 | 72 | 120 | 0.0 | 0.0 | 0.00 | 0.00 | 0.00 | 99 | 1012.5 |
| 20260905094539 | 72 | 120 | 0.0 | 0.0 | 0.00 | 0.00 | 0.00 | 99 | 1012.5 |
| 20260905094039 | 72 | 117 | 0.0 | 0.0 | 0.00 | 0.00 | 0.00 | 99 | 1012.6 |
| 20260905093533 | 72 | 120 | 0.0 | 0.0 | 0.00 | 0.00 | 0.00 | 99 | 1012.4 |
| 20260905093030 | 72 | 120 | 0.0 | 0.0 | 0.00 | 0.00 | 0.00 | 99 | 1012.2 |
| 20260905092530 | 72 | 121 | 0.0 | 0.0 | 0.00 | 0.00 | 0.00 | 99 | 1012.1 |
| 20260905092026 | 72 | 116 | 0.0 | 0.0 | 0.00 | 0.00 | 0.00 | 99 | 1012.1 |
| 20260905091524 | 73 | 116 | 0.0 | 0.0 | 0.00 | 0.00 | 0.00 | 99 | 1012.2 |
| 20260905091019 | 73 | 117 | 0.0 | 0.0 | 0.00 | 0.00 | 0.00 | 99 | 1012.4 |
| 20260905090519 | 73 | 117 | 0.0 | 0.0 | 0.00 | 0.00 | 0.00 | 99 | 1012.3 |
| 20260905090014 | 72 | 116 | 0.0 | 0.0 | 0.00 | 0.00 | 0.00 | 99 | 1012.4 |
| 20260905085512 | 73 | 115 | 0.0 | 0.0 | 0.00 | 0.00 | 0.00 | 99 | 1012.5 |
| 20260905085009 | 73 | 116 | 0.0 | 0.0 | 0.00 | 0.00 | 0.00 | 99 | 1012.5 |
| 20260905084503 | 73 | 116 | 0.0 | 0.0 | 0.00 | 0.00 | 0.00 | 99 | 1012.8 |
| 20260905083957 | 73 | 120 | 0.0 | 0.0 | 0.00 | 0.00 | 0.00 | 99 | 1012.7 |
| 20260905083453 | 73 | 119 | 0.0 | 0.0 | 0.00 | 0.00 | 0.00 | 99 | 1012.8 |
| 20260905082949 | 73 | 120 | 0.0 | 0.0 | 0.00 | 0.00 | 0.00 | 99 | 1012.8 |
| 20260905082444 | 73 | 120 | 0.0 | 0.0 | 0.00 | 0.00 | 0.00 | 99 | 1012.9 |
| 20260905081945 | 73 | 116 | 0.0 | 0.0 | 0.00 | 0.00 | 0.00 | 99 | 1012.9 |
| 20260905081440 | 73 | 120 | 0.0 | 0.0 | 0.00 | 0.00 | 0.00 | 99 | 1012.5 |
| 20260905080939 | 73 | 120 | 0.0 | 0.0 | 0.00 | 0.00 | 0.00 | 99 | 1012.9 |
| 20260905080434 | 73 | 120 | 0.0 | 0.0 | 0.00 | 0.00 | 0.00 | 99 | 1012.9 |
| 20260905075932 | 73 | 119 | 0.0 | 0.0 | 0.00 | 0.00 | 0.00 | 99 | 1013.0 |
| 20260905075427 | 73 | 119 | 0.0 | 0.0 | 0.00 | 0.00 | 0.00 | 98 | 1013.0 |
| 20260905074926 | 73 | 119 | 0.0 | 0.0 | 0.00 | 0.00 | 0.00 | 98 | 1013.0 |
| 20260905074422 | 73 | 119 | 0.0 | 0.0 | 0.00 | 0.00 | 0.00 | 98 | 1013.2 |
| 20260905073918 | 73 | 116 | 0.0 | 0.0 | 0.00 | 0.00 | 0.00 | 98 | 1013.0 |
| 20260905073412 | 74 | 116 | 0.0 | 0.0 | 0.00 | 0.00 | 0.00 | 98 | 1012.9 |
| 20260905072908 | 74 | 117 | 0.0 | 0.0 | 0.00 | 0.00 | 0.00 | 98 | 1013.3 |
| 20260905072402 | 74 | 116 | 0.0 | 0.0 | 0.00 | 0.00 | 0.00 | 98 | 1013.3 |
| 20260905071853 | 74 | 115 | 0.0 | 0.0 | 0.00 | 0.00 | 0.00 | 98 | 1013.2 |
| 20260905071349 | 74 | 119 | 0.0 | 0.0 | 0.00 | 0.00 | 0.00 | 97 | 1013.4 |
| 20260905070843 | 74 | 119 | 0.0 | 0.0 | 0.00 | 0.00 | 0.00 | 97 | 1013.0 |
| 20260905070340 | 74 | 120 | 0.0 | 0.0 | 0.00 | 0.00 | 0.00 | 97 | 1013.3 |
| 20260905065839 | 74 | 119 | 0.0 | 0.0 | 0.00 | 0.00 | 0.00 | 97 | 1013.4 |
| 20260905065337 | 74 | 119 | 0.0 | 0.0 | 0.00 | 0.00 | 0.00 | 97 | 1013.5 |
| 20260905064832 | 74 | 119 | 0.0 | 0.0 | 0.00 | 0.00 | 0.00 | 97 | 1013.5 |
| 20260905064328 | 74 | 120 | 0.0 | 0.0 | 0.00 | 0.00 | 0.00 | 97 | 1013.5 |
| 20260905063826 | 74 | 115 | 0.0 | 0.0 | 0.00 | 0.00 | 0.00 | 97 | 1013.7 |
| 20260905063323 | 74 | 115 | 0.0 | 0.0 | 0.00 | 0.00 | 0.00 | 97 | 1013.8 |
| 20260905062819 | 74 | 118 | 0.0 | 0.0 | 0.00 | 0.00 | 0.00 | 97 | 1013.8 |
| 20260905062319 | 74 | 119 | 0.0 | 0.0 | 0.00 | 0.00 | 0.00 | 97 | 1013.7 |
| 20260905061813 | 74 | 116 | 0.0 | 0.0 | 0.00 | 0.00 | 0.00 | 97 | 1013.7 |
| 20260905061308 | 74 | 116 | 0.0 | 0.0 | 0.00 | 0.00 | 0.00 | 97 | 1013.8 |
| 20260905060802 | 75 | 116 | 0.0 | 0.0 | 0.00 | 0.00 | 0.00 | 97 | 1013.8 |
| 20260905060259 | 74 | 113 | 0.0 | 0.0 | 0.00 | 0.00 | 0.00 | 97 | 1014.0 |
| 20260905055758 | 75 | 118 | 0.0 | 0.0 | 0.00 | 0.00 | 0.00 | 97 | 1014.0 |
| 20260905055252 | 75 | 116 | 0.0 | 0.0 | 0.00 | 0.00 | 0.00 | 97 | 1014.0 |
| 20260905054748 | 75 | 113 | 0.0 | 0.0 | 0.00 | 0.00 | 0.00 | 97 | 1013.9 |
| 20260905054245 | 75 | 119 | 0.0 | 0.0 | 0.00 | 0.00 | 0.00 | 97 | 1013.9 |
| 20260905053743 | 75 | 121 | 0.0 | 0.0 | 0.00 | 0.00 | 0.00 | 97 | 1014.0 |
| 20260905053239 | 75 | 118 | 0.0 | 0.0 | 0.00 | 0.00 | 0.00 | 97 | 1014.3 |
| 20260905052738 | 75 | 118 | 0.0 | 0.0 | 0.00 | 0.00 | 0.00 | 97 | 1014.3 |